ALSAT 1 1 27559U 02054A 10211.78257652 .00000102 00000-0 25228-4 0 6843 2 27559 097.8825 078.9356 0024442 131.0920 229.2400 14.69409669409724 NIGERIASAT 1 1 27941U 03042C 10211.78323399 .00000048 00000-0 18177-4 0 7494 2 27941 097.8864 075.0266 0010253 290.9107 069.0997 14.63094066365285 UK-DMC 1 27942U 03042D 10211.74846375 .00000019 00000-0 12474-4 0 7431 2 27942 097.8850 074.6900 0009980 299.1931 060.8275 14.63088574365276 BILSAT 1 1 27943U 03042E 10211.76321020 .00000027 00000-0 14047-4 0 6031 2 27943 097.8831 074.3101 0010368 288.3510 071.6568 14.62959308365266 BEIJING 1 (TSINGHUA) 1 28890U 05043A 10211.79767653 .00000031 00000-0 15826-4 0 4786 2 28890 097.9989 094.4902 0016386 141.6749 218.5632 14.60105592253532 HJ-1A 1 33320U 08041A 10211.65520493 .00000317 00000-0 54098-4 0 973 2 33320 097.9430 285.7617 0024127 205.4993 154.5041 14.75295398102117 HJ-1B 1 33321U 08041B 10211.75534464 .00000034 00000-0 12683-4 0 1340 2 33321 097.9458 285.9324 0042117 219.0153 140.8024 14.75277884102112 YAOGAN 4 1 33446U 08061A 10211.66708628 -.00000352 00000-0 -44475-4 0 8565 2 33446 097.8702 287.5709 0014644 147.0910 213.1224 14.75351921 89431 YAOGAN 5 1 33456U 08064A 10211.65394470 .00001752 00000-0 68219-4 0 8479 2 33456 097.3360 284.7609 0012888 033.4205 115.5978 15.27247022 90312 DEIMOS 1 1 35681U 09041A 10211.65525098 .00000139 00000-0 31829-4 0 1220 2 35681 098.0914 109.1375 0001751 092.9621 267.1798 14.69374043 53767 DMC 2 1 35683U 09041C 10211.75529413 .00000079 00000-0 22018-4 0 1355 2 35683 098.0953 108.1432 0001269 103.2676 256.8683 14.68612859 53706